Location: Columbia
(38.9520°N, 92.3340°W)
Time: 13:25:54
(UTC-06:00)

Cosmos 1603 - Visible Passes

Search period start: 19 November 2017 00:00
Search period end: 29 November 2017 00:00
Orbit: 830 x 860 km, 71.0° (Epoch: 18 November)

Date Brightness Start Highest point End Pass type
(mag) Time Alt. Az. Time Alt. Az. Time Alt. Az.
19 Nov 3.7 05:38:36 10° SSW 05:44:13 85° ESE 05:49:56 10° NNE visible
20 Nov 3.7 05:24:40 10° SSW 05:30:18 83° ESE 05:35:59 10° NNE visible
21 Nov 3.8 05:10:45 10° SSW 05:16:21 80° ESE 05:22:03 10° NNE visible
22 Nov 3.8 04:56:49 10° SSW 05:02:25 77° ESE 05:08:06 10° NNE visible
23 Nov 3.8 04:42:53 10° SSW 04:48:29 75° ESE 04:54:10 10° NNE visible
23 Nov 5.1 06:29:41 10° W 06:33:14 17° NW 06:36:50 10° NNW visible
24 Nov 3.8 04:32:56 47° S 04:34:33 72° ESE 04:40:14 10° NNE visible
24 Nov 5.1 06:15:37 10° W 06:19:16 17° NW 06:22:57 10° N visible
25 Nov 4.0 04:21:24 61° ENE 04:21:24 61° ENE 04:26:17 10° NNE visible
25 Nov 5.1 06:03:23 15° WNW 06:05:19 18° NW 06:09:06 10° N visible
26 Nov 5.0 04:09:11 34° NE 04:09:11 34° NE 04:12:20 10° NNE visible
26 Nov 5.0 05:51:10 18° NW 05:51:21 18° NW 05:55:13 10° N visible
27 Nov 5.7 03:56:37 21° NNE 03:56:37 21° NNE 03:58:23 10° NNE visible
27 Nov 5.2 05:38:34 18° NW 05:38:34 18° NW 05:41:20 10° N visible
28 Nov 6.2 03:43:49 13° NNE 03:43:49 13° NNE 03:44:27 10° NNE visible
28 Nov 5.4 05:25:45 15° NNW 05:25:45 15° NNW 05:27:28 10° N visible
